DW6885 Weather Reports


Display with metric or nautical units.
time (UTC)temp
F
wind
direction
speed
MPH
gust
MPH
rain 1hr
in
rain 24hr
in
rain mn
in
humidity
%
barometer
mb
20150731030006 68 257 0.0 1.0 0.00 0.11 0.11 98 1007.7
20150731025510 69 268 0.0 1.0 0.00 0.11 0.11 98 1007.8
20150731024510 69 268 0.0 1.0 0.00 0.11 0.11 98 1007.8
20150731024506 68 268 0.0 1.0 0.00 0.11 0.11 98 1007.8
20150731023509 69 268 0.0 1.0 0.00 0.11 0.11 97 1007.9
20150731022808 69 268 0.0 1.0 0.00 0.11 0.11 97 1007.9
20150731022510 69 268 0.0 2.0 0.00 0.11 0.11 97 1007.9
20150731021406 69 274 0.0 4.0 0.00 0.11 0.11 97 1007.9
20150731015708 70 293 0.0 2.0 0.00 0.11 0.11 97 1007.9
20150731014509 71 275 0.0 1.0 0.00 0.11 0.11 97 1007.9
20150731014208 71 275 0.0 1.0 0.00 0.11 0.11 97 1007.9
20150731013509 72 281 0.0 2.0 0.00 0.11 0.11 97 1007.9
20150731012807 72 281 0.0 2.0 0.00 0.11 0.11 97 1007.8
20150731012509 72 281 0.0 2.0 0.00 0.11 0.11 97 1007.8
20150731011511 72 283 0.0 2.0 0.00 0.11 0.11 98 1007.6
20150731011206 72 283 0.0 2.0 0.00 0.11 0.11 98 1007.7
20150731005714 72 319 0.0 3.0 0.00 0.11 0.11 98 1007.3
20150731005510 73 190 1.0 3.0 0.00 0.11 0.11 98 1007.3
20150731004209 72 281 0.0 4.0 0.00 0.11 0.11 98 1007.1
20150731003509 73 175 0.0 3.0 0.01 0.11 0.11 97 1007.2
20150731002509 73 168 0.0 5.0 0.01 0.11 0.11 97 1006.9
20150731002506 72 167 0.0 3.0 0.01 0.11 0.11 97 1006.9
20150731001510 73 90 0.0 5.0 0.01 0.11 0.11 97 1006.9
20150731001005 72 78 0.0 3.0 0.01 0.11 0.11 97 1007.0
20150730235506 72 164 0.0 3.0 0.01 0.11 0.11 97 1007.0
20150730234006 73 76 0.0 3.0 0.02 0.11 0.11 97 1007.1
20150730233509 73 5 1.0 3.0 0.02 0.10 0.10 97 1007.1
20150730232510 73 209 0.0 2.0 0.03 0.10 0.10 97 1006.9
20150730232505 73 209 0.0 1.0 0.02 0.10 0.10 97 1006.9
20150730230808 73 208 0.0 4.0 0.03 0.10 0.10 97 1006.7
20150730230509 73 226 1.0 3.0 0.04 0.10 0.10 97 1006.7
20150730225407 73 235 0.0 6.0 0.04 0.10 0.10 96 1006.5
20150730224509 74 338 1.0 5.0 0.03 0.09 0.09 96 1006.6
20150730223908 73 210 0.0 6.0 0.03 0.09 0.09 96 1006.7
20150730222207 73 223 0.0 3.0 0.02 0.08 0.08 96 1006.7
20150730221509 74 153 0.0 2.0 0.02 0.08 0.08 96 1006.7
20150730220709 73 213 0.0 2.0 0.00 0.06 0.06 96 1006.7
20150730220510 74 213 1.0 2.0 0.02 0.06 0.06 96 1006.7
20150730215209 73 212 0.0 4.0 0.02 0.06 0.06 95 1006.7
20150730214510 73 212 1.0 6.0 0.06 0.06 0.06 95 1006.7
20150730213708 73 244 0.0 4.0 0.06 0.06 0.06 94 1006.7
20150730213509 73 244 0.0 3.0 0.06 0.06 0.06 94 1006.8
20150730212510 74 216 0.0 1.0 0.06 0.06 0.06 95 1006.8
20150730212207 73 216 0.0 2.0 0.06 0.06 0.06 95 1006.8
20150730211509 74 216 0.0 3.0 0.06 0.06 0.06 93 1006.4
20150730210709 74 216 0.0 8.0 0.06 0.06 0.06 91 1006.3
20150730210510 75 217 1.0 6.0 0.06 0.06 0.06 90 1006.4
20150730205510 77 339 2.0 9.0 0.05 0.05 0.05 88 1006.6
20150730205007 78 195 4.0 11.0 0.04 0.04 0.04 87 1006.6
20150730204509 79 294 0.0 3.0 0.01 0.01 0.01 85 1006.0
20150730203506 79 305 0.0 3.0 0.00 0.00 0.00 84 1006.0
20150730202509 80 211 1.0 3.0 0.00 0.00 0.00 84 1005.9
20150730202005 80 287 0.0 3.0 0.00 0.00 0.00 83 1005.9
20150730201509 80 170 0.0 3.0 0.00 0.00 0.00 82 1005.8
20150730200509 81 217 0.0 3.0 0.00 0.00 0.00 81 1006.0
20150730200505 80 217 0.0 3.0 0.00 0.00 0.00 81 1006.0
20150730194905 80 218 0.0 6.0 0.00 0.00 0.00 80 1006.4
20150730193509 81 240 1.0 6.0 0.00 0.00 0.00 79 1006.7
20150730193405 81 236 0.0 2.0 0.00 0.00 0.00 79 1006.7
20150730192509 82 233 2.0 8.0 0.00 0.00 0.00 77 1006.8
20150730191809 81 208 1.0 7.0 0.00 0.00 0.00 76 1006.8
20150730190209 82 287 2.0 8.0 0.00 0.00 0.00 75 1006.9
20150730184918 83 184 1.0 10.0 0.00 0.00 0.00 73 1007.1
20150730183509 84 136 2.0 7.0 0.00 0.00 0.00 73 1007.2
20150730182509 84 326 2.0 9.0 0.00 0.00 0.00 73 1007.4
20150730181715 84 40 3.0 9.0 0.00 0.00 0.00 71 1007.6
20150730181510 85 261 3.0 9.0 0.00 0.00 0.00 71 1007.6
20150730180509 85 198 2.0 8.0 0.00 0.00 0.00 74 1007.6
20150730180210 85 277 2.0 12.0 0.00 0.00 0.00 71 1007.6
20150730174713 84 157 3.0 9.0 0.00 0.00 0.00 75 1007.8
20150730174510 84 47 2.0 9.0 0.00 0.00 0.00 76 1007.9
20150730173509 83 194 3.0 8.0 0.00 0.00 0.00 77 1008.0
20150730172510 83 118 2.0 6.0 0.00 0.00 0.00 77 1008.1
20150730171506 81 63 2.0 6.0 0.00 0.00 0.00 78 1008.2
20150730170509 83 258 2.0 7.0 0.00 0.00 0.00 75 1008.2
20150730165905 83 269 2.0 8.0 0.00 0.00 0.00 75 1008.2
20150730164510 83 188 2.0 9.0 0.00 0.00 0.00 75 1008.4
20150730164505 82 159 2.0 9.0 0.00 0.00 0.00 75 1008.5
20150730162906 83 240 1.0 11.0 0.00 0.00 0.00 75 1008.5
20150730162509 84 143 2.0 12.0 0.00 0.00 0.00 72 1008.5
20150730161405 85 250 0.0 7.0 0.00 0.00 0.00 76 1008.5
20150730155905 83 238 2.0 8.0 0.00 0.00 0.00 76 1008.7
20150730155509 83 262 2.0 6.0 0.00 0.00 0.00 78 1008.7
20150730154509 83 152 3.0 7.0 0.00 0.00 0.00 73 1008.9
20150730154305 83 212 3.0 8.0 0.00 0.00 0.00 72 1009.0
20150730152717 83 26 1.0 9.0 0.00 0.00 0.00 72 1009.0
20150730152510 84 253 2.0 9.0 0.00 0.00 0.00 73 1009.1
20150730151509 83 228 2.0 8.0 0.00 0.00 0.00 73 1009.1
20150730151214 83 315 0.0 6.0 0.00 0.00 0.00 74 1009.1
20150730145715 82 171 0.0 5.0 0.00 0.00 0.00 73 1009.1
20150730145510 83 124 2.0 5.0 0.00 0.00 0.00 73 1009.2
20150730144510 82 184 1.0 5.0 0.00 0.00 0.00 73 1009.2
20150730144305 82 217 1.0 5.0 0.00 0.00 0.00 73 1009.2
20150730143509 82 285 2.0 3.0 0.00 0.00 0.00 75 1009.2
20150730142715 81 263 0.0 2.0 0.00 0.00 0.00 78 1009.2
20150730142509 81 252 0.0 3.0 0.00 0.00 0.00 77 1009.2
20150730141306 80 117 0.0 6.0 0.00 0.00 0.00 78 1009.3
20150730140509 80 179 1.0 6.0 0.00 0.00 0.00 79 1009.4
20150730135509 79 13 0.0 3.0 0.00 0.00 0.00 81 1009.5
20150730135507 79 13 0.0 2.0 0.00 0.00 0.00 81 1009.5
20150730134509 78 326 1.0 3.0 0.00 0.00 0.00 84 1009.6
20150730134006 77 285 0.0 4.0 0.00 0.00 0.00 85 1009.6
20150730133509 76 286 0.0 3.0 0.00 0.00 0.00 87 1009.7
20150730132505 75 150 0.0 2.0 0.00 0.00 0.00 90 1009.8
20150730131509 74 195 0.0 3.0 0.00 0.00 0.00 93 1009.9
20150730131005 73 195 1.0 4.0 0.00 0.00 0.00 93 1009.9
20150730125405 71 103 0.0 1.0 0.00 0.00 0.00 99 1010.1
20150730123905 69 103 0.0 3.0 0.00 0.00 0.00 100 1010.3
20150730122509 69 225 0.0 1.0 0.00 0.00 0.00 100 1010.6
20150730122407 68 225 0.0 1.0 0.00 0.00 0.00 100 1010.6
20150730121509 68 225 0.0 1.0 0.00 0.00 0.00 100 1010.7
20150730120905 67 225 0.0 0.0 0.00 0.00 0.00 99 1010.7
20150730120509 67 225 0.0 0.0 0.00 0.00 0.00 100 1010.7
20150730115509 66 225 0.0 0.0 0.00 0.00 0.00 99 1010.7
20150730115406 66 225 0.0 0.0 0.00 0.00 0.00 99 1010.7
20150730114509 65 225 0.0 0.0 0.00 0.00 0.00 99 1010.7
20150730113711 63 225 0.0 0.0 0.00 0.00 0.00 99 1010.8
20150730113509 64 225 0.0 0.0 0.00 0.00 0.00 99 1010.8
20150730112509 63 225 0.0 0.0 0.00 0.00 0.00 99 1010.8
20150730112214 62 225 0.0 0.0 0.00 0.00 0.00 99 1010.8
20150730111510 63 225 0.0 0.0 0.00 0.00 0.00 99 1010.7
20150730110714 62 225 0.0 0.0 0.00 0.00 0.00 99 1010.7
20150730110509 62 225 0.0 0.0 0.00 0.00 0.00 99 1010.7
20150730105509 62 225 0.0 0.0 0.00 0.00 0.00 99 1010.7
20150730105214 61 225 0.0 0.0 0.00 0.00 0.00 99 1010.7
20150730104508 62 225 0.0 0.0 0.00 0.00 0.00 99 1010.7
20150730103715 61 225 0.0 0.0 0.00 0.00 0.00 99 1010.7
20150730103510 61 225 0.0 0.0 0.00 0.00 0.00 99 1010.7
20150730102509 61 225 0.0 0.0 0.00 0.00 0.00 99 1010.7
20150730102214 61 225 0.0 0.0 0.00 0.00 0.00 99 1010.7
20150730101509 61 225 0.0 0.0 0.00 0.00 0.00 98 1010.7
20150730100509 61 225 0.0 0.0 0.00 0.00 0.00 98 1010.7
20150730100505 61 225 0.0 0.0 0.00 0.00 0.00 98 1010.7
20150730095509 61 225 0.0 0.0 0.00 0.00 0.00 98 1010.6
20150730095011 61 225 0.0 0.0 0.00 0.00 0.00 98 1010.7
20150730094509 61 225 0.0 0.0 0.00 0.00 0.00 98 1010.6
20150730093509 61 225 0.0 0.0 0.00 0.00 0.00 98 1010.7
20150730093505 61 225 0.0 0.0 0.00 0.00 0.00 98 1010.6
20150730092509 61 225 0.0 0.0 0.00 0.00 0.00 98 1010.6
20150730091905 61 225 0.0 0.0 0.00 0.00 0.00 98 1010.8
20150730091509 61 225 0.0 0.0 0.00 0.00 0.00 98 1010.8
20150730090405 61 225 0.0 0.0 0.00 0.00 0.00 98 1010.7
20150730084906 61 225 0.0 0.0 0.00 0.00 0.00 98 1010.7
20150730083510 62 225 0.0 0.0 0.00 0.00 0.00 98 1010.7
20150730083404 61 225 0.0 0.0 0.00 0.00 0.00 98 1010.7
20150730082509 62 225 0.0 0.0 0.00 0.00 0.00 98 1010.8
20150730081905 62 225 0.0 0.0 0.00 0.00 0.00 98 1010.8
20150730081509 62 225 0.0 0.0 0.00 0.00 0.00 98 1010.8
20150730080509 62 225 0.0 0.0 0.00 0.00 0.00 98 1010.9
20150730080213 62 225 0.0 0.0 0.00 0.00 0.00 98 1010.9
20150730074714 62 225 0.0 0.0 0.00 0.00 0.00 98 1010.9
20150730074509 63 225 0.0 0.0 0.00 0.00 0.00 98 1011.0
20150730073509 63 225 0.0 0.0 0.00 0.00 0.00 98 1010.9
20150730073214 62 225 0.0 0.0 0.00 0.00 0.00 98 1010.9
20150730072509 63 225 0.0 0.0 0.00 0.00 0.00 98 1011.0
20150730071713 63 225 0.0 0.0 0.00 0.00 0.00 98 1011.0
20150730071509 63 225 0.0 0.0 0.00 0.00 0.00 97 1011.0
20150730070212 63 225 0.0 0.0 0.00 0.00 0.00 98 1011.1
20150730065509 63 225 0.0 0.0 0.00 0.00 0.00 98 1011.0
20150730064509 64 225 0.0 0.0 0.00 0.00 0.00 98 1011.1
20150730064506 63 225 0.0 0.0 0.00 0.00 0.00 97 1011.1
20150730063005 63 225 0.0 0.0 0.00 0.00 0.00 97 1011.2
20150730062509 64 225 0.0 0.0 0.00 0.00 0.00 97 1011.1
20150730061512 64 225 0.0 0.0 0.00 0.00 0.00 97 1011.2
20150730061506 64 225 0.0 0.0 0.00 0.00 0.00 97 1011.2
20150730060510 64 225 0.0 0.0 0.00 0.00 0.00 97 1011.2
20150730060006 64 225 0.0 0.0 0.00 0.00 0.00 97 1011.2
20150730055510 64 225 0.0 0.0 0.00 0.00 0.00 97 1011.2
20150730054510 64 225 0.0 0.0 0.00 0.00 0.00 97 1011.3
20150730054504 64 225 0.0 0.0 0.00 0.00 0.00 97 1011.3
20150730052905 64 225 0.0 0.0 0.00 0.00 0.00 97 1011.3
20150730051511 65 225 0.0 0.0 0.00 0.00 0.00 97 1011.4
20150730051406 65 225 0.0 0.0 0.00 0.00 0.00 97 1011.4
20150730045806 65 225 0.0 0.0 0.00 0.00 0.00 97 1011.4
20150730045511 65 225 0.0 0.0 0.00 0.00 0.00 97 1011.4
20150730044304 65 225 0.0 0.0 0.00 0.00 0.00 96 1011.5
20150730042805 65 225 0.0 0.0 0.00 0.00 0.00 96 1011.3
20150730042510 66 225 0.0 0.0 0.00 0.00 0.00 96 1011.4
20150730041510 66 225 0.0 0.0 0.00 0.00 0.00 96 1011.4
20150730041305 66 225 0.0 0.0 0.00 0.00 0.00 96 1011.4
20150730040511 66 225 0.0 0.0 0.00 0.00 0.00 96 1011.5
20150730035805 66 225 0.0 0.0 0.00 0.00 0.00 96 1011.5
20150730035509 67 225 0.0 0.0 0.00 0.00 0.00 96 1011.6
20150730034206 67 225 0.0 0.0 0.00 0.00 0.00 95 1011.5
20150730033509 67 225 0.0 0.0 0.00 0.00 0.00 95 1011.5
20150730032704 67 225 0.0 0.0 0.00 0.00 0.00 95 1011.5
20150730032509 68 225 0.0 0.0 0.00 0.00 0.00 95 1011.4
20150730031206 68 225 0.0 0.0 0.00 0.00 0.00 95 1011.3